Tracking 19176 objects as of 28-May-2018
HD Live streaming from Space Station
objects crossing your sky now

ARIANE 42L R/B

Track ARIANE 42L R/B now!
10-day predictions


NORAD ID: 25586
Int'l Code: 1998-075B
Perigee: 215.0 km
Apogee: 17,901.4 km
Inclination: 7.6 °
Period: 317.9 minutes
Semi major axis: 15429 km
RCS: 21.3079 m2 (large)
Launch date: December 22, 1998
Source: France (FR)
Launch site: FRENCH GUIANA (FRGUI)

Note: This is a ROCKET BODY
aabbcc
Your satellite tracking list
Your tracking list is empty




NASA's NSSDC Master Catalog

Two Line Element Set (TLE):
1 25586U 98075B   18147.24825448  .00026281  00000-0  90959-3 0  9997
2 25586   7.5850 354.8401 5731459 248.8389  42.7347  4.52988482245428
Source of the keplerian elements: AFSPC